[[{"header":{"parameterUnit":"m.s-1","parameterCategory":2,"la1":30.2991,"la2":30.254,"lo1":-89.0895,"lo2":-89.0444,"dy":0.0017,"dx":0.0017,"nx":28,"ny":28,"refTime":"2024-10-10T03:00:00:Z","depth":"0","parameterNumber":2,"parameterNumberName":"U-component_of_CURRENTS"},"data":[0,0,0,0,0,0,0,0,0,0,0,0,0,0,0,0,0,0,0,0,0,0,0,0,0,0,0,0,0,0,0,0,0,0,0,0,0,0,0,0,0,0,0,0,0,0,0,0,0,0,0,0,0,0,0,0,0,0,0.3082,0.3083,0,0.3132,0.3132,0.3133,0.3142,0.3141,0.3141,0.3141,0.3123,0.3122,0.3122,0,0,0,0,0,0,0,0,0,0,0,0,0,0.3043,0.3043,0.3082,0.3083,0.3084,0.3132,0.3132,0.3133,0.3142,0.3141,0.3141,0.3141,0.3123,0.3122,0.3122,0,0,0,0,0,0,0,0,0,0,0,0,0,0.3071,0.3043,0.3082,0.3096,0.3098,0.3132,0.3132,0.3133,0.3142,0.3141,0.3141,0.3141,0.3123,0.3122,0.3122,0.3125,0,0,0.3121,0.312,0,0,0,0,0,0,0,0,0.3069,0.3072,0.3093,0.3095,0.3097,0.3132,0.3112,0.3128,0.3142,0.3123,0.3141,0.3141,0.3121,0.3121,0.3129,0.3125,0.3124,0.3121,0.312,0.312,0.312,0,0,0,0,0,0,0,0.3067,0.307,0.31,0.3094,0.3096,0.3116,0.3119,0.3115,0.312,0.3124,0.3126,0.3135,0.3121,0.3129,0.3128,0.3123,0.3121,0.312,0.312,0.312,0.3165,0.3166,0,0,0,0,0,0,0.3063,0.3068,0.3098,0.3101,0.3085,0.3117,0.312,0.3119,0.3122,0.3123,0.3135,0.3135,0.313,0.3129,0.3127,0.3168,0.312,0.312,0.3119,0.3163,0.3165,0.3167,0,0,0,0,0,0,0.3062,0.3065,0.3096,0.3088,0.3094,0.3118,0.3117,0.3121,0.3132,0.3131,0.313,0.3143,0.313,0.3128,0.3136,0.3165,0.312,0.3119,0.3162,0.3164,0.3166,0.3224,0,0,0,0,0,0,0.3061,0.3064,0.3061,0.3088,0.3094,0.3119,0.3118,0.3122,0.3139,0.314,0.3138,0.3136,0.3129,0.3137,0.3136,0.3164,0.3119,0.316,0.3163,0.3165,0.3221,0.3228,0.3235,0,0,0,0,0,0.3059,0.3058,0.3061,0.3065,0.3089,0.312,0.3125,0.314,0.314,0.3148,0.3152,0.3136,0.3154,0.3137,0.3136,0.3165,0.3158,0.3162,0.3165,0.3217,0.3227,0.3235,0,0,0,0,0,0,0.3034,0.3059,0.3063,0.3067,0.3093,0.3122,0.3131,0.3143,0.3154,0.3152,0.3147,0.3146,0.3168,0.3157,0.3139,0.3187,0.3156,0.316,0.3197,0.3206,0.3213,0.3229,0.3118,0,0,0,0,0,0.3029,0.3035,0.3065,0.3068,0.3081,0.3107,0.312,0.3133,0.3149,0.3154,0.3156,0.3163,0.3181,0.3184,0.3191,0.3208,0.3233,0.3229,0.3236,0.3242,0.3256,0.3319,0.3333,0.3177,0.3177,0.3177,0,0,0.3021,0.3035,0.3039,0.3064,0.3083,0.3114,0.3113,0.3137,0.3168,0.3148,0.3179,0.3183,0.3192,0.3221,0.323,0.3213,0.3304,0.3246,0.3252,0.3262,0.3324,0.3339,0.3353,0.318,0.3179,0.3179,0,0,0.302,0.3021,0.3034,0.3059,0.3093,0.3114,0.3123,0.3155,0.3173,0.3202,0.3208,0.3233,0.3242,0.3269,0.3282,0.3331,0.334,0.333,0.3377,0.3439,0.3453,0.3465,0.3533,0.3551,0.3333,0.3333,0.3333,0,0.3012,0.3032,0.3044,0.3071,0.3097,0.3117,0.3149,0.3176,0.3208,0.3234,0.3215,0.3277,0.3274,0.334,0.3359,0.3349,0.3386,0.3342,0.345,0.3462,0.3473,0.354,0.3559,0.3336,0.3336,0.3335,0.3335,0,0.3033,0.3051,0.3063,0.3105,0.3132,0.316,0.3203,0.323,0.3249,0.3281,0.3339,0.3349,0.339,0.3397,0.3391,0.3478,0.3479,0.3452,0.3428,0.3493,0.3559,0.3578,0.3341,0.3339,0.3339,0.3338,0,0,0.3021,0.3069,0.3076,0.31,0.3154,0.3178,0.3233,0.3295,0.3346,0.3372,0.3445,0.3477,0.3487,0.3503,0.3509,0.3558,0.367,0.3542,0.3543,0.3612,0.3823,0.3794,0.3811,0.3662,0.3665,0.3668,0.3842,0,0.3041,0.3087,0.3113,0.3166,0.3196,0.3236,0.3287,0.3343,0.3396,0.3468,0.3504,0.3565,0.3529,0.3558,0.3605,0.3656,0.3719,0.3626,0.3748,0.3752,0.372,0.3831,0.3683,0.3823,0.386,0.3863,0.3866,0,0.3063,0.3092,0.3139,0.3199,0.3217,0.3252,0.3344,0.3395,0.3499,0.3547,0.3618,0.365,0.3739,0.369,0.3821,0.3765,0.3804,0.3835,0.3842,0.3807,0.3758,0.3762,0.3856,0.3743,0.3894,0.3892,0.389,0,0.3052,0.3113,0.3146,0.3169,0.324,0.3271,0.3315,0.3413,0.3477,0.3609,0.3671,0.3769,0.383,0.3894,0.3954,0.3899,0.4104,0.4031,0.405,0.4049,0.3943,0.3926,0.3941,0.4138,0.4137,0.4137,0.4136,0,0.3065,0.3095,0.3139,0.3161,0.3211,0.3261,0.3338,0.3411,0.3527,0.3622,0.3703,0.3803,0.3883,0.3995,0.4025,0.4118,0.4167,0.4097,0.4104,0.396,0.3944,0.3853,0.3794,0.4143,0.4142,0.4141,0.414,0,0.305,0.3079,0.3119,0.3183,0.3204,0.3237,0.3335,0.3402,0.3514,0.3648,0.3694,0.386,0.4018,0.4107,0.4247,0.4214,0.4186,0.4318,0.4152,0.4135,0.3986,0.3935,0.3856,0.3735,0.4353,0.4354,0.4354,0,0.3047,0.3064,0.312,0.3146,0.3173,0.3229,0.3278,0.3387,0.3471,0.3682,0.3751,0.3947,0.409,0.4295,0.4317,0.441,0.4248,0.4277,0.4128,0.3997,0.3946,0.3781,0.367,0.4024,0.4021,0.402,0.4018,0,0.3047,0.3058,0.3091,0.3141,0.3182,0.3224,0.3304,0.3358,0.3506,0.3617,0.3791,0.3924,0.4154,0.4197,0.4321,0.4332,0.4054,0.4238,0.4144,0.3739,0.352,0.3398,0.3901,0.4001,0.4003,0.4004,0.4005,0.4006,0.3044,0.3058,0.3098,0.3132,0.3179,0.3206,0.3201,0.3304,0.3397,0.3532,0.3735,0.3873,0.4014,0.4176,0.4171,0.4024,0.3986,0.3856,0.3828,0.369,0.3488,0.3966,0.4037,0.4039,0.404,0.4042,0.4043,0,0.3048,0.306,0.3093,0.3113,0.3119,0.3158,0.3208,0.3183,0.3229,0.3428,0.3559,0.3694,0.3768,0.3838,0.3784,0.3625,0.3434,0.3502,0.322,0.3147,0.3624,0.3522,0.3433,0.3433,0.3433,0.3433,0.3433,0.3433,0.3052,0.3062,0.3057,0.3036,0.3042,0.2993,0.2978,0.2971,0.3058,0.3122,0.3194,0.3323,0.35,0.3554,0.3408,0.3317,0.3025,0.2904,0.2882,0.3211,0.324,0.3267,0.3156,0.2992,0.2992,0.2257,0.2252,0.2248]},{"header":{"parameterUnit":"m.s-1","parameterCategory":2,"la1":30.2991,"la2":30.254,"lo1":-89.0895,"lo2":-89.0444,"dy":0.0017,"dx":0.0017,"nx":28,"ny":28,"refTime":"2024-10-10T03:00:00:Z","depth":"0","parameterNumber":3,"parameterNumberName":"V-component_of_CURRENTS"},"data":[0,0,0,0,0,0,0,0,0,0,0,0,0,0,0,0,0,0,0,0,0,0,0,0,0,0,0,0,0,0,0,0,0,0,0,0,0,0,0,0,0,0,0,0,0,0,0,0,0,0,0,0,0,0,0,0,0,0,-0.0229,-0.023,0,-0.0296,-0.0297,-0.0298,-0.036,-0.0361,-0.0362,-0.0362,-0.0439,-0.044,-0.0441,0,0,0,0,0,0,0,0,0,0,0,0,0,-0.0209,-0.0209,-0.0229,-0.023,-0.0231,-0.0296,-0.0297,-0.0298,-0.036,-0.0361,-0.0362,-0.0362,-0.0438,-0.044,-0.0441,0,0,0,0,0,0,0,0,0,0,0,0,0,-0.0242,-0.0209,-0.0229,-0.0268,-0.0272,-0.0295,-0.0297,-0.0298,-0.036,-0.0361,-0.0362,-0.0363,-0.0437,-0.044,-0.0442,-0.0436,0,0,-0.0448,-0.0449,0,0,0,0,0,0,0,0,-0.024,-0.0243,-0.0262,-0.0266,-0.027,-0.0319,-0.0317,-0.0344,-0.036,-0.0329,-0.0362,-0.0363,-0.0398,-0.0403,-0.0416,-0.044,-0.0443,-0.0449,-0.045,-0.0451,-0.0451,0,0,0,0,0,0,0,-0.0238,-0.0241,-0.0257,-0.0263,-0.0268,-0.03,-0.0306,-0.0323,-0.0358,-0.0331,-0.0336,-0.034,-0.04,-0.0414,-0.0418,-0.0444,-0.0448,-0.045,-0.0452,-0.0453,-0.0494,-0.0494,0,0,0,0,0,0,-0.0222,-0.0238,-0.0255,-0.0259,-0.0255,-0.03,-0.0306,-0.0304,-0.0358,-0.0367,-0.0339,-0.0343,-0.0409,-0.0416,-0.0421,-0.0419,-0.0451,-0.0453,-0.0454,-0.0494,-0.0494,-0.0494,0,0,0,0,0,0,-0.0221,-0.0223,-0.0253,-0.0249,-0.0255,-0.0298,-0.0296,-0.0305,-0.0316,-0.0364,-0.0373,-0.0341,-0.041,-0.0418,-0.0431,-0.0422,-0.0454,-0.0456,-0.0495,-0.0494,-0.0494,-0.0413,0,0,0,0,0,0,-0.022,-0.0222,-0.0216,-0.0248,-0.0255,-0.0252,-0.0295,-0.0305,-0.0317,-0.0322,-0.0368,-0.0377,-0.0412,-0.0428,-0.0433,-0.0426,-0.0457,-0.0495,-0.0495,-0.0494,-0.0416,-0.041,-0.0405,0,0,0,0,0,-0.0219,-0.0199,-0.0215,-0.0217,-0.0245,-0.0251,-0.0257,-0.0293,-0.0315,-0.0309,-0.0346,-0.0375,-0.043,-0.0429,-0.0436,-0.0428,-0.0495,-0.0495,-0.0494,-0.0418,-0.0411,-0.0405,0,0,0,0,0,0,-0.0179,-0.0204,-0.0223,-0.0209,-0.0225,-0.0261,-0.0259,-0.0283,-0.0308,-0.0315,-0.0364,-0.0374,-0.0388,-0.0416,-0.0414,-0.0442,-0.0471,-0.0472,-0.0411,-0.0404,-0.0399,-0.0383,-0.0459,0,0,0,0,0,-0.0167,-0.0165,-0.019,-0.0179,-0.0184,-0.0221,-0.0229,-0.025,-0.0276,-0.0289,-0.0321,-0.036,-0.0391,-0.0403,-0.0434,-0.0437,-0.0458,-0.0441,-0.0435,-0.043,-0.0423,-0.0456,-0.0452,-0.0493,-0.0493,-0.0493,0,0,-0.0149,-0.0162,-0.0161,-0.0172,-0.019,-0.0183,-0.0228,-0.023,-0.0228,-0.0291,-0.0297,-0.0339,-0.0389,-0.0401,-0.041,-0.0422,-0.0425,-0.043,-0.0425,-0.0421,-0.0455,-0.0451,-0.0447,-0.0492,-0.0492,-0.0492,0,0,-0.0108,-0.0121,-0.0108,-0.0113,-0.013,-0.015,-0.0145,-0.0173,-0.0191,-0.0198,-0.0252,-0.0283,-0.032,-0.0358,-0.0382,-0.0361,-0.0397,-0.0376,-0.033,-0.0361,-0.0357,-0.0355,-0.0349,-0.0347,-0.037,-0.037,-0.037,0,-0.0086,-0.0072,-0.0102,-0.0086,-0.0084,-0.0128,-0.0106,-0.0125,-0.0155,-0.0162,-0.0188,-0.0258,-0.03,-0.0326,-0.0326,-0.0347,-0.036,-0.0347,-0.0352,-0.035,-0.0349,-0.0344,-0.0342,-0.0366,-0.0366,-0.0367,-0.0367,0,-0.0037,-0.0025,-0.0012,-0.0012,-0.0012,0.0003,-0.0023,-0.0028,-0.0056,-0.0082,-0.0111,-0.0174,-0.0215,-0.024,-0.0277,-0.0292,-0.03,-0.0341,-0.0363,-0.0339,-0.0336,-0.0336,-0.036,-0.0362,-0.0363,-0.0364,0,0,0.0009,0.0019,0.0023,0.0038,0.003,0.004,0.0046,0.004,0.0051,0.0,0.0005,-0.0071,-0.0111,-0.0142,-0.02,-0.0234,-0.0233,-0.0277,-0.0281,-0.0259,-0.0272,-0.0234,-0.023,-0.0275,-0.0276,-0.0276,-0.0262,0,0.0055,0.0102,0.0091,0.0137,0.0159,0.0132,0.0143,0.013,0.0112,0.0108,0.0028,0.0006,-0.0072,-0.009,-0.0136,-0.0204,-0.0233,-0.0231,-0.0309,-0.031,-0.027,-0.0229,-0.0214,-0.0198,-0.0262,-0.0263,-0.0263,0,0.0104,0.0128,0.0181,0.0209,0.0216,0.0234,0.0251,0.0262,0.0238,0.0222,0.0182,0.0123,0.0071,-0.0007,-0.0104,-0.0097,-0.0176,-0.0239,-0.0241,-0.0235,-0.0272,-0.024,-0.0195,-0.038,-0.0263,-0.0263,-0.0263,0,0.015,0.0193,0.0237,0.0249,0.027,0.0286,0.0298,0.0293,0.0331,0.03,0.0325,0.0232,0.0219,0.0092,-0.002,-0.0067,-0.0113,-0.0198,-0.0239,-0.0236,-0.0253,-0.025,-0.0388,-0.0278,-0.0279,-0.0279,-0.0279,0,0.0203,0.0242,0.0262,0.0289,0.0349,0.034,0.0405,0.0402,0.043,0.0515,0.0392,0.0443,0.0241,0.0193,0.0042,-0.0054,-0.006,-0.0211,-0.023,-0.022,-0.0215,-0.0402,-0.0519,-0.0278,-0.0278,-0.0278,-0.0278,0,0.0254,0.0263,0.0324,0.0356,0.0374,0.0421,0.0499,0.0561,0.056,0.0673,0.0674,0.0623,0.0578,0.0399,0.0233,0.0067,-0.0156,-0.0108,-0.0056,-0.007,-0.0312,-0.0423,-0.056,-0.0629,-0.0169,-0.0168,-0.0167,0,0.0287,0.0321,0.0386,0.0448,0.047,0.0539,0.0604,0.0624,0.0724,0.0816,0.09,0.087,0.0925,0.0701,0.0397,0.0164,-0.0055,-0.0026,-0.014,-0.03,-0.044,-0.0525,-0.058,-0.0123,-0.0122,-0.0121,-0.012,0,0.0368,0.0386,0.0448,0.0567,0.0647,0.0741,0.0847,0.094,0.1015,0.1124,0.1295,0.1343,0.1143,0.0928,0.0569,0.0362,-0.0152,-0.0014,-0.0215,-0.0432,-0.0501,-0.0583,-0.0136,-0.0112,-0.0113,-0.0113,-0.0114,-0.0114,0.0446,0.0513,0.0606,0.0716,0.0819,0.096,0.1053,0.1204,0.1384,0.1589,0.1622,0.175,0.1352,0.0881,0.0579,-0.0029,-0.0059,-0.0255,-0.0376,-0.0445,-0.0523,-0.0025,-0.0006,-0.0006,-0.0006,-0.0006,-0.0006,0,0.056,0.0643,0.0761,0.0898,0.1024,0.1046,0.1237,0.1351,0.159,0.1822,0.1994,0.1902,0.1431,0.0882,0.0071,-0.0339,-0.0517,-0.0579,-0.0739,-0.0781,-0.0366,-0.0377,-0.0395,-0.0395,-0.0395,-0.0395,-0.0394,-0.0394,0.0638,0.077,0.0818,0.1045,0.1146,0.1307,0.1411,0.1603,0.1791,0.2064,0.2176,0.2232,0.1775,0.04,-0.053,-0.0744,-0.1053,-0.1101,-0.1244,-0.1022,-0.1003,-0.0985,-0.1024,-0.1177,-0.1178,-0.1607,-0.1612,-0.1615]}],[{"header":{"parameterUnit":"m.s-1","parameterCategory":2,"la1":30.2991,"la2":30.254,"lo1":-89.0895,"lo2":-89.0444,"dy":0.0017,"dx":0.0017,"nx":28,"ny":28,"refTime":"2024-10-10T03:00:00:Z","depth":"2","parameterNumber":2,"parameterNumberName":"U-component_of_CURRENTS"},"data":[0,0,0,0,0,0,0,0,0,0,0,0,0,0,0,0,0,0,0,0,0,0,0,0,0,0,0,0,0,0,0,0,0,0,0,0,0,0,0,0,0,0,0,0,0,0,0,0,0,0,0,0,0,0,0,0,0,0,0.2559,0.256,0,0.2591,0.259,0.259,0.258,0.2581,0.2581,0.2581,0.2614,0.2614,0.2615,0,0,0,0,0,0,0,0,0,0,0,0,0,0.2478,0.2479,0.2559,0.2561,0.2562,0.2591,0.259,0.259,0.258,0.2581,0.2581,0.2581,0.2613,0.2614,0.2615,0,0,0,0,0,0,0,0,0,0,0,0,0,0.2502,0.2479,0.2559,0.2568,0.257,0.2591,0.259,0.259,0.258,0.2581,0.2581,0.2582,0.2613,0.2614,0.2615,0.2612,0,0,0.2618,0.2618,0,0,0,0,0,0,0,0,0.25,0.2503,0.2566,0.2568,0.257,0.2591,0.2574,0.2601,0.258,0.2566,0.2581,0.2582,0.2613,0.2614,0.2604,0.2613,0.2615,0.2618,0.2618,0.2619,0.2619,0,0,0,0,0,0,0,0.2499,0.2502,0.2561,0.2567,0.257,0.2567,0.257,0.2578,0.2578,0.2567,0.2569,0.2589,0.2612,0.2603,0.2605,0.2615,0.2618,0.2618,0.2619,0.2619,0.2699,0.27,0,0,0,0,0,0,0.2516,0.2501,0.256,0.2563,0.2547,0.2569,0.2572,0.2575,0.2578,0.2582,0.2588,0.2588,0.2601,0.2604,0.2606,0.2671,0.2619,0.2619,0.262,0.2697,0.2699,0.2701,0,0,0,0,0,0,0.2514,0.252,0.2559,0.2542,0.2548,0.2571,0.2575,0.2576,0.258,0.2596,0.2598,0.2594,0.2602,0.2605,0.264,0.267,0.262,0.2621,0.2695,0.2698,0.27,0.2758,0,0,0,0,0,0,0.2511,0.2519,0.2527,0.2542,0.255,0.2578,0.2576,0.2577,0.2596,0.2596,0.2602,0.2604,0.2602,0.2639,0.2641,0.267,0.2621,0.2693,0.2696,0.2699,0.2754,0.2762,0.2769,0,0,0,0,0,0.2507,0.2518,0.2527,0.2535,0.256,0.258,0.2582,0.2593,0.2596,0.2597,0.2618,0.2605,0.2659,0.2641,0.2643,0.2673,0.2692,0.2695,0.2699,0.2751,0.276,0.2768,0,0,0,0,0,0,0.2482,0.252,0.2529,0.2549,0.257,0.2582,0.2591,0.26,0.2613,0.2622,0.2624,0.2628,0.2667,0.2665,0.2645,0.2706,0.2674,0.2678,0.2712,0.2722,0.2729,0.2725,0.2622,0,0,0,0,0,0.2485,0.2503,0.2534,0.255,0.256,0.2576,0.2588,0.2602,0.2621,0.2626,0.2636,0.2656,0.268,0.2697,0.2708,0.2743,0.2751,0.2765,0.2772,0.2778,0.2778,0.2834,0.2846,0.2712,0.2712,0.2712,0,0,0.248,0.2506,0.2515,0.2547,0.2557,0.2581,0.258,0.2607,0.2638,0.263,0.2666,0.2678,0.2694,0.2734,0.2752,0.2739,0.2821,0.2783,0.2788,0.2784,0.2839,0.2852,0.2864,0.2715,0.2714,0.2714,0,0,0.2485,0.2499,0.2518,0.2538,0.2579,0.2592,0.2606,0.2632,0.2651,0.2693,0.2701,0.274,0.2762,0.279,0.2805,0.2862,0.2853,0.2862,0.2903,0.2958,0.297,0.298,0.3006,0.3018,0.2872,0.2872,0.2872,0,0.2486,0.2507,0.2526,0.2552,0.2578,0.26,0.2629,0.2651,0.2692,0.272,0.2715,0.2776,0.2792,0.2854,0.2877,0.2879,0.2896,0.2867,0.2968,0.2978,0.2988,0.3012,0.3024,0.2876,0.2875,0.2875,0.2875,0,0.2501,0.2525,0.2535,0.2577,0.2606,0.2631,0.2678,0.2709,0.2738,0.2766,0.2828,0.2853,0.2898,0.2907,0.291,0.2987,0.2971,0.2967,0.2945,0.3005,0.3026,0.3038,0.288,0.2879,0.2878,0.2877,0,0,0.2483,0.2538,0.2543,0.257,0.2624,0.265,0.2708,0.2766,0.2815,0.2849,0.2916,0.2957,0.2976,0.2995,0.3009,0.3049,0.3135,0.3039,0.304,0.3062,0.3241,0.3202,0.3211,0.315,0.3152,0.3154,0.3228,0,0.2489,0.2544,0.2572,0.2623,0.2653,0.2698,0.2744,0.2808,0.2865,0.2933,0.2976,0.3035,0.3011,0.3048,0.3089,0.3127,0.3169,0.3114,0.3181,0.3182,0.3139,0.3225,0.2972,0.3014,0.324,0.3242,0.3243,0,0.2494,0.2534,0.2591,0.2656,0.2672,0.2707,0.2801,0.2861,0.2961,0.3006,0.3077,0.3108,0.3188,0.3158,0.3246,0.3212,0.3234,0.3245,0.3249,0.3199,0.3167,0.2991,0.3027,0.3263,0.3261,0.326,0.3258,0,0.2475,0.2545,0.2595,0.2617,0.2693,0.2732,0.2785,0.2883,0.2956,0.3077,0.3131,0.3209,0.3278,0.3309,0.3343,0.3308,0.3427,0.3388,0.3365,0.3361,0.3151,0.3125,0.3453,0.3453,0.3453,0.3452,0.3452,0,0.2463,0.2504,0.2591,0.2608,0.2669,0.2742,0.2821,0.2889,0.3017,0.3097,0.3179,0.3243,0.3322,0.3392,0.3391,0.3426,0.3478,0.3387,0.3392,0.3163,0.3139,0.3352,0.3339,0.3455,0.3454,0.3454,0.3453,0,0.2436,0.2487,0.2557,0.264,0.2658,0.2725,0.2834,0.2903,0.302,0.314,0.3184,0.3317,0.3399,0.3456,0.3534,0.3502,0.3526,0.3522,0.324,0.321,0.34,0.339,0.3496,0.3495,0.3495,0.3495,0.3494,0,0.2435,0.2468,0.2565,0.2602,0.2638,0.2725,0.2769,0.2895,0.2984,0.3153,0.3211,0.3346,0.3399,0.351,0.3501,0.3518,0.3554,0.3279,0.3169,0.3419,0.3412,0.3402,0.3392,0.2905,0.29,0.2896,0.2892,0,0.2419,0.2464,0.2498,0.2582,0.2639,0.27,0.2787,0.2831,0.2982,0.307,0.3182,0.3241,0.3367,0.3284,0.3338,0.3297,0.3254,0.3196,0.3553,0.2944,0.2871,0.2861,0.2869,0.2855,0.2859,0.2862,0.2864,0.2865,0.2418,0.2449,0.2493,0.256,0.2622,0.2652,0.2652,0.2732,0.2809,0.2873,0.3024,0.3019,0.3083,0.3034,0.2958,0.291,0.3118,0.2953,0.2962,0.2976,0.2905,0.2837,0.28,0.2803,0.2806,0.2808,0.281,0,0.2421,0.2441,0.2471,0.2528,0.2523,0.2593,0.2644,0.259,0.2591,0.2675,0.273,0.2531,0.2513,0.2571,0.2458,0.2476,0.2404,0.2359,0.2233,0.2274,0.231,0.2199,0.191,0.1907,0.1904,0.1901,0,0,0.2424,0.2428,0.2415,0.2384,0.2419,0.2388,0.2379,0.2306,0.2324,0.2215,0.2207,0.2385,0.2513,0.2171,0.2147,0.2007,0.2109,0.1928,0.2662,0.2557,0.2588,0.2682,0.2564,0,0,0,0,0]},{"header":{"parameterUnit":"m.s-1","parameterCategory":2,"la1":30.2991,"la2":30.254,"lo1":-89.0895,"lo2":-89.0444,"dy":0.0017,"dx":0.0017,"nx":28,"ny":28,"refTime":"2024-10-10T03:00:00:Z","depth":"2","parameterNumber":3,"parameterNumberName":"V-component_of_CURRENTS"},"data":[0,0,0,0,0,0,0,0,0,0,0,0,0,0,0,0,0,0,0,0,0,0,0,0,0,0,0,0,0,0,0,0,0,0,0,0,0,0,0,0,0,0,0,0,0,0,0,0,0,0,0,0,0,0,0,0,0,0,0.0101,0.01,0,0.0058,0.0058,0.0057,0.0025,0.0024,0.0024,0.0024,-0.0056,-0.0057,-0.0059,0,0,0,0,0,0,0,0,0,0,0,0,0,0.0132,0.0132,0.0101,0.01,0.01,0.0058,0.0058,0.0057,0.0025,0.0024,0.0024,0.0023,-0.0055,-0.0057,-0.0059,0,0,0,0,0,0,0,0,0,0,0,0,0,0.0108,0.0132,0.0101,0.0078,0.0075,0.0058,0.0058,0.0057,0.0025,0.0024,0.0024,0.0023,-0.0054,-0.0057,-0.0059,-0.0063,0,0,-0.0067,-0.0068,0,0,0,0,0,0,0,0,0.0109,0.0107,0.0082,0.0079,0.0076,0.0045,0.0039,0.0015,0.0025,0.0045,0.0024,0.0023,-0.0026,-0.0031,-0.0035,-0.0067,-0.007,-0.0068,-0.0069,-0.007,-0.0071,0,0,0,0,0,0,0,0.0111,0.0108,0.0085,0.0081,0.0078,0.0061,0.0057,0.0035,0.0014,0.0043,0.0041,0.0034,-0.0027,-0.0032,-0.0037,-0.0071,-0.0067,-0.007,-0.0071,-0.0072,-0.0121,-0.012,0,0,0,0,0,0,0.0116,0.011,0.0087,0.0084,0.009,0.0061,0.0057,0.0057,0.0015,0.0008,0.0035,0.0033,-0.0028,-0.0034,-0.004,-0.0043,-0.007,-0.0073,-0.0074,-0.0121,-0.0121,-0.012,0,0,0,0,0,0,0.0117,0.0114,0.0088,0.0095,0.009,0.0061,0.0061,0.0056,0.0051,0.0008,0.0001,0.0034,-0.0028,-0.0037,-0.0061,-0.0047,-0.0074,-0.0076,-0.0121,-0.0121,-0.0121,-0.0052,0,0,0,0,0,0,0.0118,0.0115,0.0116,0.0095,0.009,0.0087,0.0061,0.0056,0.0047,0.0044,0.0006,-0.0002,-0.003,-0.0057,-0.0063,-0.0051,-0.0078,-0.0122,-0.0121,-0.0121,-0.0055,-0.005,-0.0045,0,0,0,0,0,0.0119,0.0129,0.0116,0.0113,0.0092,0.0087,0.0084,0.0061,0.0048,0.0053,0.0021,-0.0001,-0.0058,-0.0058,-0.0066,-0.0055,-0.0122,-0.0121,-0.0121,-0.0057,-0.0051,-0.0045,0,0,0,0,0,0,0.0143,0.0126,0.0112,0.0115,0.0103,0.0081,0.0082,0.0067,0.0047,0.004,0.0001,-0.0009,-0.0024,-0.0051,-0.005,-0.0068,-0.0093,-0.0094,-0.0042,-0.0036,-0.0031,-0.0005,-0.008,0,0,0,0,0,0.0148,0.015,0.013,0.0132,0.0129,0.0106,0.01,0.0085,0.0064,0.0055,0.0027,-0.0004,-0.0027,-0.004,-0.0066,-0.0076,-0.0102,-0.0074,-0.0069,-0.0064,-0.0049,-0.0086,-0.0083,-0.0118,-0.0118,-0.0118,0,0,0.0156,0.0146,0.0147,0.0137,0.0126,0.0136,0.0102,0.0098,0.0104,0.0049,0.0047,0.0011,-0.0027,-0.0037,-0.0046,-0.0058,-0.0069,-0.0064,-0.0059,-0.0046,-0.0085,-0.0082,-0.0079,-0.0118,-0.0118,-0.0118,0,0,0.0182,0.0168,0.0182,0.018,0.0166,0.0155,0.0158,0.0138,0.0127,0.0115,0.0079,0.0053,0.0017,-0.0003,-0.0019,-0.0003,-0.0042,-0.0014,0.0034,-0.0002,0.0001,0.0003,-0.0024,-0.0025,-0.001,-0.001,-0.001,0,0.019,0.0209,0.0185,0.0202,0.0207,0.0171,0.0194,0.0181,0.0154,0.0152,0.0122,0.0076,0.0037,0.0034,0.0036,0.0011,-0.0016,0.0017,0.0005,0.0007,0.0008,-0.002,-0.0022,-0.0007,-0.0007,-0.0007,-0.0008,0,0.0232,0.0247,0.0258,0.0268,0.027,0.0284,0.0265,0.0263,0.0239,0.0222,0.0205,0.0148,0.0123,0.0104,0.0073,0.0069,0.0047,0.0016,-0.0005,0.0016,-0.0016,-0.0019,-0.0002,-0.0003,-0.0004,-0.0005,0,0,0.0253,0.0282,0.0286,0.0311,0.0309,0.032,0.0332,0.0337,0.0357,0.0307,0.0323,0.0266,0.0229,0.0208,0.0162,0.013,0.0106,0.0082,0.0079,0.0064,0.0032,0.0005,-0.0001,0.007,0.007,0.007,0.0008,0,0.0294,0.035,0.0347,0.0401,0.0433,0.0414,0.0436,0.0431,0.0414,0.0417,0.0352,0.034,0.027,0.0257,0.0213,0.0137,0.0101,0.0127,0.0007,0.0004,-0.0017,-0.0005,0.0016,-0.0038,0.0005,0.0004,0.0004,0,0.0337,0.0373,0.0436,0.0486,0.0498,0.0518,0.0554,0.0569,0.0557,0.0545,0.0512,0.0455,0.0405,0.0336,0.0217,0.0235,0.0144,0.0077,0.0072,0.0025,-0.0029,-0.0055,-0.0046,-0.0002,-0.0001,-0.0001,-0.0001,0,0.0378,0.0435,0.0492,0.0508,0.0554,0.0576,0.0596,0.0604,0.0643,0.0624,0.0639,0.0556,0.0526,0.0399,0.0245,0.023,0.0112,0.0069,-0.0039,-0.0042,-0.0057,-0.0061,-0.0014,-0.0014,-0.0014,-0.0014,-0.0014,0,0.0429,0.0475,0.0516,0.055,0.0626,0.0629,0.0699,0.0712,0.0745,0.0801,0.0705,0.0726,0.0539,0.0441,0.0285,0.012,0.0135,-0.002,-0.0058,-0.0034,-0.0035,-0.0031,-0.0032,-0.0016,-0.0016,-0.0015,-0.0015,0,0.0468,0.0494,0.0568,0.0626,0.0649,0.0702,0.0782,0.084,0.0853,0.0923,0.0921,0.086,0.0729,0.0534,0.0337,0.0188,0.0021,-0.0044,0.0001,-0.003,-0.0118,-0.0115,-0.0166,-0.0167,-0.0168,-0.0169,-0.017,0,0.0494,0.0535,0.0624,0.0679,0.0708,0.0783,0.0845,0.0892,0.0967,0.101,0.1059,0.0958,0.09,0.0602,0.0323,0.0051,0.0018,-0.0106,-0.0138,-0.0101,-0.0133,-0.0128,-0.0123,-0.0132,-0.0133,-0.0133,-0.0134,0,0.0545,0.0572,0.0635,0.0749,0.0824,0.0923,0.1014,0.1092,0.1152,0.1211,0.1267,0.1218,0.0934,0.0664,0.0287,0.0104,-0.0066,-0.0123,-0.0096,-0.0097,-0.0075,-0.0104,-0.01,-0.0137,-0.0137,-0.0136,-0.0136,-0.0136,0.0575,0.0632,0.0714,0.0823,0.0919,0.1043,0.1135,0.1238,0.136,0.1443,0.1401,0.1335,0.1028,0.0547,0.023,-0.0095,-0.0084,-0.0202,-0.0199,-0.0196,-0.018,-0.0162,-0.0237,-0.0237,-0.0237,-0.0237,-0.0237,0,0.0613,0.0682,0.0785,0.0914,0.1022,0.1072,0.1241,0.133,0.1471,0.1522,0.1545,0.1241,0.0937,0.0592,0.0105,-0.019,-0.0206,-0.0276,-0.0232,-0.0227,-0.0223,-0.0207,-0.0272,-0.0273,-0.0274,-0.0274,0,0,0.0635,0.0732,0.0789,0.0965,0.1064,0.1224,0.1327,0.1461,0.1545,0.1572,0.1539,0.1447,0.1034,0.0678,0.0277,0.0005,-0.0041,-0.0049,0.0009,0.0113,0.0121,-0.0153,-0.012,0,0,0,0,0]}],[{"header":{"parameterUnit":"m.s-1","parameterCategory":2,"la1":30.2991,"la2":30.254,"lo1":-89.0895,"lo2":-89.0444,"dy":0.0017,"dx":0.0017,"nx":28,"ny":28,"refTime":"2024-10-10T03:00:00:Z","depth":"4","parameterNumber":2,"parameterNumberName":"U-component_of_CURRENTS"},"data":[0,0,0,0,0,0,0,0,0,0,0,0,0,0,0,0,0,0,0,0,0,0,0,0,0,0,0,0,0,0,0,0,0,0,0,0,0,0,0,0,0,0,0,0,0,0,0,0,0,0,0,0,0,0,0,0,0,0,0.1546,0.1547,0,0.1609,0.1609,0.161,0.166,0.1661,0.1662,0.1662,0.1756,0.1758,0.176,0,0,0,0,0,0,0,0,0,0,0,0,0,0.1457,0.1458,0.1546,0.1547,0.1548,0.1608,0.1609,0.161,0.166,0.1661,0.1662,0.1663,0.1756,0.1758,0.176,0,0,0,0,0,0,0,0,0,0,0,0,0,0.1503,0.1458,0.1546,0.1582,0.1585,0.1608,0.1609,0.161,0.166,0.1661,0.1662,0.1663,0.1755,0.1758,0.176,0.1758,0,0,0.1769,0.177,0,0,0,0,0,0,0,0,0.1501,0.1507,0.1575,0.1579,0.1584,0.1629,0.1612,0.1662,0.166,0.163,0.1662,0.1663,0.1717,0.1723,0.173,0.1763,0.1767,0.1769,0.1771,0.1772,0.1773,0,0,0,0,0,0,0,0.1497,0.1504,0.1569,0.1576,0.1581,0.159,0.1597,0.1621,0.1667,0.1633,0.1637,0.1646,0.1719,0.1727,0.1733,0.1768,0.1769,0.1772,0.1774,0.1775,0.1908,0.191,0,0,0,0,0,0,0.1493,0.1501,0.1567,0.1571,0.1545,0.1591,0.1599,0.1612,0.1666,0.1675,0.1645,0.1648,0.1722,0.1729,0.1736,0.1828,0.1772,0.1775,0.1777,0.1906,0.1909,0.1911,0,0,0,0,0,0,0.149,0.1498,0.1565,0.1538,0.1548,0.1591,0.1605,0.1613,0.1656,0.1675,0.1685,0.1684,0.1723,0.1732,0.1794,0.1828,0.1776,0.1779,0.1904,0.1907,0.191,0.1952,0,0,0,0,0,0,0.1488,0.1497,0.152,0.1538,0.1549,0.16,0.1605,0.1613,0.1658,0.1664,0.1711,0.1719,0.1724,0.179,0.1797,0.1831,0.1781,0.1902,0.1905,0.1909,0.1948,0.1956,0.1963,0,0,0,0,0,0.1484,0.1504,0.1521,0.153,0.1575,0.1602,0.1609,0.1641,0.166,0.1683,0.1722,0.1719,0.1817,0.1794,0.1802,0.1837,0.19,0.1904,0.1908,0.1945,0.1955,0.1962,0,0,0,0,0,0,0.1476,0.1512,0.1531,0.1562,0.1592,0.1611,0.164,0.166,0.1707,0.1727,0.1743,0.1754,0.182,0.1826,0.18,0.1887,0.1858,0.1864,0.1884,0.1892,0.1899,0.1894,0.1783,0,0,0,0,0,0.1485,0.1514,0.1544,0.1573,0.1592,0.1623,0.1646,0.1669,0.1704,0.1728,0.176,0.18,0.1836,0.1863,0.1893,0.1941,0.1951,0.197,0.1978,0.1983,0.1986,0.2032,0.2043,0.1924,0.1924,0.1924,0,0,0.1488,0.1514,0.1531,0.1574,0.1603,0.1631,0.164,0.1685,0.1716,0.173,0.1797,0.1829,0.1856,0.1911,0.1941,0.1925,0.2025,0.1989,0.1993,0.1993,0.2038,0.2049,0.2059,0.1927,0.1927,0.1926,0,0,0.1495,0.1537,0.156,0.1589,0.164,0.1661,0.1681,0.1725,0.1759,0.1818,0.184,0.1894,0.1949,0.1974,0.1991,0.2057,0.2061,0.2074,0.2107,0.2152,0.2162,0.217,0.2203,0.2214,0.2077,0.2077,0.2077,0,0.1501,0.1534,0.1571,0.16,0.1628,0.1677,0.1705,0.1744,0.1804,0.1837,0.185,0.1952,0.1975,0.2038,0.2062,0.2072,0.2097,0.2069,0.216,0.2169,0.2177,0.2208,0.222,0.208,0.2079,0.2079,0.2079,0,0.1514,0.1555,0.1574,0.1628,0.1661,0.17,0.1749,0.1801,0.1851,0.1886,0.1975,0.2016,0.2075,0.2093,0.2099,0.2174,0.2174,0.2162,0.2133,0.2191,0.2221,0.2232,0.2083,0.2082,0.2082,0.2081,0,0,0.1484,0.1567,0.1577,0.1607,0.1683,0.1705,0.1774,0.1838,0.1892,0.1962,0.203,0.2098,0.2136,0.2159,0.2184,0.2223,0.2302,0.2224,0.2225,0.2248,0.2406,0.2258,0.2256,0.2314,0.2316,0.2318,0.2405,0,0.1487,0.1537,0.1583,0.1638,0.1666,0.1736,0.1794,0.1862,0.1932,0.2013,0.2076,0.2155,0.2158,0.2206,0.2246,0.2294,0.2334,0.2279,0.2354,0.2356,0.221,0.2265,0.2325,0.2414,0.2416,0.2418,0.242,0,0.1475,0.1514,0.1564,0.1646,0.1668,0.1715,0.1815,0.1876,0.1994,0.2053,0.2142,0.2203,0.2294,0.2283,0.239,0.2361,0.2391,0.2414,0.2417,0.2269,0.2229,0.2345,0.244,0.2439,0.2437,0.2436,0.2434,0,0.1413,0.1496,0.1537,0.1565,0.1667,0.1714,0.1781,0.1892,0.1956,0.2095,0.2161,0.2269,0.2347,0.2403,0.2465,0.2444,0.2568,0.2538,0.243,0.242,0.2508,0.2498,0.2606,0.2606,0.2605,0.2605,0.2605,0,0.138,0.1414,0.1519,0.1541,0.1603,0.1688,0.1777,0.1858,0.1988,0.2066,0.2188,0.2261,0.2386,0.247,0.2499,0.2501,0.26,0.2442,0.2434,0.2525,0.2516,0.2516,0.2505,0.2608,0.2608,0.2607,0.2607,0,0.1298,0.1372,0.1421,0.1536,0.1576,0.1621,0.1765,0.1824,0.1965,0.2073,0.2127,0.2289,0.2392,0.2489,0.2591,0.2532,0.2555,0.2531,0.2636,0.2632,0.2368,0.2359,0.2406,0.2401,0.2397,0.2394,0.2392,0,0.126,0.1276,0.1395,0.1432,0.1491,0.1581,0.1642,0.1792,0.186,0.2066,0.2103,0.2266,0.2356,0.2387,0.2487,0.2533,0.2507,0.2499,0.241,0.2361,0.235,0.2345,0.2341,0.2386,0.2385,0.2384,0.2383,0,0.118,0.1234,0.1284,0.1356,0.1424,0.148,0.1586,0.1622,0.1798,0.1947,0.204,0.211,0.2221,0.2296,0.2358,0.2381,0.2489,0.2459,0.2465,0.2382,0.2337,0.2328,0.2328,0.2369,0.2371,0.2373,0.2373,0,0.1127,0.1139,0.1216,0.1267,0.134,0.1357,0.1425,0.1515,0.1602,0.1838,0.1864,0.2039,0.2196,0.2219,0.2272,0.2288,0.2246,0.2167,0.2188,0.2203,0.2096,0.2007,0.1936,0,0,0,0,0,0.1064,0.1072,0.1119,0.1166,0.1227,0.1264,0.1379,0.1455,0.1632,0.1652,0.1757,0.1854,0.1943,0.2034,0.2011,0.2169,0.2243,0.213,0.2158,0.2296,0.2312,0.2203,0,0,0,0,0,0,0.1028,0.1065,0.1086,0.1068,0.1076,0.1122,0.1182,0.1295,0.1326,0.1521,0.1585,0.1738,0.1855,0.1939,0.1974,0.2001,0.198,0.2246,0.2241,0.2288,0.2302,0.2314,0.2207,0,0,0,0,0]},{"header":{"parameterUnit":"m.s-1","parameterCategory":2,"la1":30.2991,"la2":30.254,"lo1":-89.0895,"lo2":-89.0444,"dy":0.0017,"dx":0.0017,"nx":28,"ny":28,"refTime":"2024-10-10T03:00:00:Z","depth":"4","parameterNumber":3,"parameterNumberName":"V-component_of_CURRENTS"},"data":[0,0,0,0,0,0,0,0,0,0,0,0,0,0,0,0,0,0,0,0,0,0,0,0,0,0,0,0,0,0,0,0,0,0,0,0,0,0,0,0,0,0,0,0,0,0,0,0,0,0,0,0,0,0,0,0,0,0,0.0159,0.0159,0,0.0134,0.0134,0.0134,0.0118,0.0118,0.0118,0.0118,0.0065,0.0064,0.0063,0,0,0,0,0,0,0,0,0,0,0,0,0,0.0173,0.0173,0.0159,0.0159,0.0158,0.0134,0.0134,0.0134,0.0118,0.0118,0.0118,0.0118,0.0066,0.0064,0.0063,0,0,0,0,0,0,0,0,0,0,0,0,0,0.016,0.0173,0.0159,0.0148,0.0147,0.0134,0.0134,0.0134,0.0118,0.0118,0.0118,0.0118,0.0066,0.0064,0.0063,0.0053,0,0,0.0056,0.0056,0,0,0,0,0,0,0,0,0.016,0.0159,0.015,0.0149,0.0147,0.0129,0.012,0.0105,0.0119,0.0129,0.0118,0.0118,0.0084,0.0081,0.0077,0.005,0.0048,0.0056,0.0055,0.0054,0.0054,0,0,0,0,0,0,0,0.0161,0.016,0.0149,0.015,0.0148,0.0137,0.0135,0.0117,0.0107,0.0128,0.0127,0.0124,0.0083,0.0079,0.0075,0.0047,0.0056,0.0055,0.0053,0.0053,0.0016,0.0016,0,0,0,0,0,0,0.0166,0.0161,0.015,0.0149,0.0154,0.0137,0.0135,0.0135,0.0108,0.0104,0.0125,0.0124,0.0082,0.0078,0.0073,0.0078,0.0054,0.0052,0.0051,0.0016,0.0016,0.0016,0,0,0,0,0,0,0.0166,0.0165,0.0151,0.0154,0.0151,0.0137,0.0137,0.0135,0.0133,0.0105,0.0101,0.0126,0.0082,0.0076,0.0061,0.0075,0.0051,0.005,0.0016,0.0016,0.0016,0.0074,0,0,0,0,0,0,0.0167,0.0165,0.0168,0.0154,0.0151,0.015,0.0137,0.0134,0.0131,0.013,0.0105,0.01,0.0082,0.0065,0.006,0.0071,0.0048,0.0015,0.0016,0.0016,0.0072,0.0077,0.008,0,0,0,0,0,0.0167,0.0173,0.0168,0.0167,0.0155,0.015,0.0148,0.0137,0.0132,0.0134,0.0116,0.0101,0.0064,0.0063,0.0057,0.0069,0.0015,0.0016,0.0016,0.007,0.0076,0.008,0,0,0,0,0,0,0.0178,0.0172,0.0166,0.0169,0.0162,0.0148,0.0149,0.0141,0.0129,0.0128,0.0102,0.0096,0.0087,0.0067,0.0068,0.0058,0.0037,0.0037,0.008,0.0085,0.0089,0.0106,0.0046,0,0,0,0,0,0.0182,0.0187,0.0176,0.0178,0.0177,0.0164,0.016,0.0154,0.0141,0.0136,0.0118,0.0099,0.0084,0.0077,0.0057,0.0053,0.0025,0.0056,0.006,0.0064,0.0072,0.0039,0.0041,0.0018,0.0018,0.0018,0,0,0.0187,0.0184,0.0186,0.0181,0.0175,0.0184,0.0162,0.0161,0.017,0.0131,0.0136,0.011,0.0084,0.008,0.0075,0.0067,0.0055,0.0065,0.0068,0.0074,0.004,0.0042,0.0044,0.0018,0.0018,0.0018,0,0,0.0203,0.0196,0.0208,0.0208,0.0204,0.0197,0.02,0.0189,0.0186,0.0182,0.0159,0.0143,0.0119,0.0107,0.0097,0.0112,0.0075,0.0104,0.0143,0.0111,0.0113,0.0114,0.0078,0.0076,0.011,0.011,0.011,0,0.0208,0.0225,0.021,0.0224,0.0233,0.0208,0.0229,0.0222,0.0208,0.021,0.019,0.016,0.0135,0.0136,0.0141,0.0123,0.0095,0.0128,0.0117,0.0118,0.0118,0.0081,0.0078,0.0113,0.0113,0.0112,0.0112,0,0.0236,0.0252,0.0259,0.0274,0.0278,0.029,0.0283,0.0285,0.0273,0.0265,0.0256,0.0218,0.0203,0.019,0.017,0.0167,0.0142,0.0124,0.0108,0.0124,0.0084,0.0079,0.0117,0.0116,0.0115,0.0114,0,0,0.0243,0.0275,0.0279,0.0303,0.0309,0.0319,0.0334,0.0345,0.0362,0.0332,0.0346,0.031,0.0285,0.0271,0.024,0.0212,0.0185,0.0175,0.0172,0.0145,0.011,0.0082,0.0074,0.0163,0.0163,0.0163,0.0079,0,0.0272,0.0319,0.0324,0.0371,0.0398,0.0392,0.0414,0.0417,0.0409,0.0413,0.0369,0.0364,0.0318,0.0311,0.0276,0.0209,0.0177,0.021,0.0093,0.0089,0.0068,0.007,0.0162,0.0076,0.0074,0.0074,0.0073,0,0.03,0.0332,0.0386,0.0437,0.0447,0.047,0.0505,0.0523,0.0518,0.051,0.049,0.0449,0.0411,0.0364,0.0258,0.028,0.0204,0.0144,0.0139,0.0093,0.0054,0.0055,0.0064,0.0065,0.0066,0.0066,0.0067,0,0.0321,0.0376,0.0426,0.0443,0.049,0.0516,0.054,0.0553,0.058,0.0574,0.0577,0.0519,0.0488,0.039,0.0261,0.026,0.0132,0.0114,0.0017,0.0014,0.0038,0.0037,0.0039,0.004,0.004,0.004,0.004,0,0.0352,0.0392,0.0444,0.0472,0.0537,0.0556,0.0616,0.063,0.0654,0.0682,0.0631,0.0621,0.0491,0.0399,0.0281,0.0132,0.0144,0.0024,-0.0008,0.0063,0.0066,0.0034,0.0035,0.0037,0.0037,0.0038,0.0039,0,0.0364,0.0399,0.0461,0.0524,0.0551,0.0596,0.067,0.0708,0.0726,0.0758,0.0758,0.0693,0.0567,0.0425,0.0257,0.0159,0.0021,-0.0036,0.0049,0.0023,-0.0081,-0.0077,-0.0145,-0.0146,-0.0148,-0.0149,-0.015,0,0.0372,0.0406,0.0494,0.0537,0.0569,0.0641,0.069,0.0739,0.0778,0.0793,0.0802,0.0705,0.0634,0.0385,0.023,0.0006,-0.0029,-0.0095,-0.0086,-0.0075,-0.0099,-0.0093,-0.0087,-0.0152,-0.0152,-0.0153,-0.0153,0,0.0382,0.0413,0.0464,0.0553,0.0617,0.0698,0.0769,0.0801,0.0848,0.0866,0.0831,0.071,0.0564,0.0374,0.0198,0.0038,-0.0046,-0.011,-0.0108,-0.01,-0.0085,-0.0106,-0.0098,-0.0158,-0.0157,-0.0157,-0.0157,0,0.0379,0.0414,0.0479,0.0563,0.0642,0.072,0.0766,0.0807,0.085,0.0866,0.0845,0.0703,0.0629,0.0388,0.0226,0.0065,0.0023,-0.002,-0.0024,-0.002,0.0037,0.0076,0.0027,0,0,0,0,0,0.0374,0.0417,0.0485,0.0575,0.0652,0.0711,0.08,0.084,0.0882,0.0861,0.086,0.0724,0.049,0.0394,0.0226,0.0182,-0.0016,-0.0021,-0.0071,-0.0184,-0.0179,-0.0136,0,0,0,0,0,0,0.0367,0.0427,0.0474,0.0565,0.063,0.0723,0.0785,0.0823,0.0817,0.0834,0.0711,0.0678,0.0446,0.0579,0.022,0.0173,0.0118,-0.0121,-0.0125,-0.0187,-0.0182,-0.0178,-0.0132,0,0,0,0,0]}]]